Location: Baltersberg
(47.7083°N, 9.7112°E)
Time: 07:57:50
(UTC+00:00)

Daily predictions for brighter satellites

Satellite Brightness Start Highest point End
(mag) Time Altitude Azimuth Time Altitude Azimuth Time Altitude Azimuth
ATLAS 3B R/B 4.1 19:18:04 10° NW 19:25:06 40° WSW 19:31:44 10° S
Cosmos 1782 2.5 19:24:11 10° S 19:27:38 58° E 19:31:07 10° NNE
Spot 2 Rocket 4.1 19:24:01 10° SE 19:28:44 42° ENE 19:33:27 10° N
Cosmos 1607 4.0 19:22:57 10° SW 19:29:06 89° SE 19:35:25 10° NE
SL-16 R/B 3.0 19:23:47 10° NNW 19:29:07 40° NE 19:34:25 10° ESE
ERS-1 Rocket 3.0 19:26:45 10° SSE 19:31:46 89° ENE 19:36:49 10° NNW
Meteor 1-27 4.2 19:27:52 10° S 19:33:29 79° E 19:39:05 10° NNE
MetOp-B 4.2 19:33:55 10° SSE 19:39:16 88° ENE 19:44:40 10° NNW
Cosmos 2061 Rocket 4.2 19:36:42 10° SSE 19:42:45 57° E 19:48:54 10° NNE
Cosmos 1980 Rocket 3.3 19:37:59 10° NW 19:43:21 44° WSW 19:48:40 10° S
CZ-4 R/B 2.4 19:40:46 10° S 19:44:11 40° W 19:47:38 10° NNW
USA 186 2.4 19:42:50 11° SE 19:45:06 30° ENE 19:47:35 10° N
Cosmos 2228 2.8 19:41:18 10° S 19:45:23 77° E 19:49:30 10° NNE
COSMOS 2406 3.5 19:40:30 10° S 19:45:59 49° ESE 19:51:29 10° NE
Cosmos 1933 4.4 19:45:01 10° SE 19:48:06 24° E 19:51:11 10° NE
Cosmos 2084 Rocket 4.3 19:44:14 10° NW 19:48:14 44° SW 19:52:16 10° SSE
SL-08 R/B 3.4 19:43:37 10° NNE 19:48:23 60° ESE 19:53:02 10° S
ISS -2.6 19:46:27 10° W 19:49:40 43° N 19:52:54 10° ENE
Cosmos 1743 3.4 19:46:54 10° NNW 19:49:45 38° W 19:52:34 10° SSW
Cosmos 1461 2.9 19:46:30 10° SSW 19:50:00 41° ESE 19:53:29 10° NE
Cosmos 1455 Rocket 3.6 19:45:49 10° SSW 19:50:11 62° WNW 19:54:32 10° N
Cosmos 1992 Rocket 4.0 19:45:08 10° S 19:50:17 66° ESE 19:55:27 10° NNE
Cosmos 1802 Rocket 4.3 19:44:57 10° SSW 19:51:06 72° W 19:57:15 10° N
Cosmos 1892 Rocket 4.3 19:47:46 10° NNW 19:51:59 53° W 19:56:08 10° S
Terra 2.1 19:47:33 10° S 19:52:13 68° WSW 19:56:55 10° NNW
SKYMED 3 4.3 19:48:16 10° NNE 19:52:14 80° ESE 19:56:13 10° S
Okean O Rocket 1.6 19:52:34 10° SSE 19:56:49 66° ENE 20:01:06 10° N
Cosmos 2333 Rocket 2.5 19:53:55 10° NNW 19:59:33 57° ENE 20:04:29 14° SE
Cosmos 1544 Rocket 3.7 19:59:45 10° S 20:03:56 51° E 20:08:07 10° NNE
NOSS 3-3 (A) 3.8 19:58:49 10° SW 20:04:00 81° NW 20:10:16 10° NE
Cosmos 1437 Rocket 3.0 20:03:17 11° SSE 20:06:25 41° E 20:09:49 10° NNE
Cosmos 2360 Rocket 2.9 20:04:08 10° NNW 20:09:32 42° NE 20:13:59 14° ESE
Helios 1A Rocket 3.8 20:06:42 10° N 20:09:39 38° WNW 20:12:35 10° SW
CZ-4B R/B 3.9 20:07:03 10° S 20:12:34 54° W 20:18:05 10° NNW
Cosmos 2233 Rocket 4.2 20:08:30 10° SSW 20:14:41 74° W 20:20:51 10° N
Okean-O 2.7 20:14:53 12° S 20:18:59 77° WSW 20:23:23 10° NNW
Cosmos 1486 Rocket 4.4 20:15:00 10° NNW 20:20:09 53° ENE 20:23:55 18° SE
Cosmos 909 Rocket 4.3 20:14:55 10° SW 20:21:13 76° NW 20:27:46 10° NE
CZ-2C R/B 3.6 20:21:09 18° E 20:22:03 21° ENE 20:24:13 10° NNE
Cosmos 1758 Rocket 3.6 20:17:39 10° N 20:22:05 87° W 20:25:51 14° S
Cosmos 2219 Rocket 3.2 20:17:01 10° NNW 20:22:11 35° NE 20:26:24 14° ESE
DNEPR-1 R/B 4.4 20:24:32 10° NW 20:30:03 80° NE 20:34:56 19° SE
USA 245 4.3 20:25:40 16° SSE 20:30:29 78° ENE 20:36:01 10° N
IRS-1C Rocket 4.3 20:27:08 19° SE 20:30:53 58° ENE 20:36:04 10° N
Nadezhda 4 Rocket 4.4 20:25:26 10° N 20:31:21 48° ENE 20:35:27 20° SE
Meteor 1-25 Rocket 4.2 20:25:53 10° N 20:31:33 73° ENE 20:35:42 19° SSE
Cosmos 1825 Rocket 4.3 20:30:37 10° N 20:34:42 38° ENE 20:36:52 23° SE
Cosmos 1805 3.1 20:32:07 10° N 20:35:18 48° ENE 20:36:34 29° SE
Cosmos 220 Rocket 3.7 20:32:20 10° SSW 20:36:22 73° ESE 20:40:28 10° NNE
NOSS 3-3 (C) 4.3 20:31:25 10° SW 20:36:39 62° NW 20:42:59 10° NE
Meteor 2-10 4.5 20:33:33 10° N 20:39:14 57° ENE 20:42:50 22° SE
Cosmos 2322 Rocket 2.2 20:36:30 10° NNW 20:42:11 74° ENE 20:45:49 23° SE
USA 306 4.2 20:44:02 10° NW 20:45:49 16° NNW 20:47:10 10° NNE
Cosmos 1602 Rocket 3.5 20:41:42 10° N 20:46:03 86° WSW 20:48:44 23° S
Cosmos 2082 Rocket 4.0 20:41:06 10° WSW 20:46:18 35° NW 20:51:31 10° NNE
NOSS 3-4 (A) 3.8 20:42:57 10° NW 20:49:42 89° SW 20:55:06 22° SE
NOSS 3-4 (C) 3.8 20:43:35 10° NW 20:50:21 90° NE 20:55:45 22° SE
Cosmos 1707 4.3 20:52:04 13° ENE 20:52:04 13° ENE 20:52:52 10° NE
CZ-4B R/B 2.6 20:49:58 28° S 20:51:36 70° WSW 20:55:04 10° NNW
DELTA 2 R/B (1) 4.4 20:46:46 10° WSW 20:51:41 32° S 20:53:40 25° SSE
Cosmos 2058 Rocket 4.5 20:53:53 20° ESE 20:54:41 21° E 20:57:58 10° NE
Cosmos 2151 3.8 20:52:18 10° NNW 20:56:14 45° W 20:59:05 17° SSW
Cosmos 2098 Rocket 3.0 20:53:24 20° S 20:56:41 82° E 21:00:49 10° N
Cosmos 1076 Rocket 3.9 20:54:38 10° N 20:58:46 48° ENE 21:00:20 31° SE
Cosmos 44 4.3 20:54:14 10° NNW 20:59:24 44° NE 21:02:45 20° ESE
Ariane Rocket 3.0 20:59:01 24° S 21:02:07 79° WSW 21:07:12 10° NNW
Cosmos 2278 4.2 21:03:43 10° NW 21:09:16 53° WSW 21:12:37 23° S
SPOT 3 Rocket 4.1 21:09:24 20° SSW 21:12:49 51° W 21:17:49 10° NNW
SL-16 R/B 3.2 21:07:58 10° NW 21:13:12 39° WSW 21:16:43 19° SSW
COSMOS 2428 4.0 21:09:00 10° NNW 21:14:02 31° NE 21:17:37 17° E
Meteor 1-5 Rocket 4.4 21:08:18 10° NNW 21:14:03 74° W 21:17:38 25° S
Cosmos 1763 Rocket 3.5 21:10:53 24° S 21:14:05 67° ESE 21:19:20 10° NNE
USA 186 4.3 21:13:33 10° WSW 21:14:35 12° W 21:15:36 10° WNW
USA 290 2.4 21:18:07 35° SW 21:19:13 66° WNW 21:22:21 10° NNE
Cosmos 1606 Rocket 3.6 21:17:14 27° SSW 21:19:34 77° W 21:23:54 10° N
Cosmos 1464 Rocket 4.1 21:18:41 17° SSW 21:23:30 76° W 21:29:44 10° N
Cosmos 990 Rocket 3.9 21:18:42 10° NNW 21:23:54 84° ENE 21:26:04 36° SSE
Helios 1B rocket 3.4 21:24:22 25° E 21:24:52 26° ENE 21:27:49 10° N
CZ-4B R/B 4.1 21:23:15 23° SSW 21:25:52 45° W 21:30:31 10° NNW
ISS -2.9 21:23:34 10° WNW 21:26:51 49° NNE 21:28:15 28° ENE
Okean 1 3.1 21:25:54 41° SSW 21:27:01 70° W 21:30:36 10° N
Cosmos 1726 Rocket 3.3 21:25:50 39° SSW 21:27:15 87° W 21:31:20 10° N
BREEZE-M DEB (TANK) 2.3 21:26:24 10° WNW 21:28:12 39° NW 21:28:12 39° NW
Okean O Rocket 4.1 21:31:11 10° WSW 21:33:26 14° W 21:35:43 10° WNW
Cosmos 1536 2.9 21:33:02 10° N 21:36:38 49° ENE 21:36:59 48° E
Cosmos-2242 2.8 21:37:47 53° SSE 21:38:35 69° E 21:42:42 10° NNE
Cosmos 1092 Rocket 3.9 21:36:25 10° N 21:42:37 78° E 21:45:21 36° SSE
Cosmos 2333 Rocket 3.8 21:38:50 10° NW 21:43:28 26° WSW 21:46:30 17° SW
KORONAS-FOTON 4.0 21:43:53 45° ENE 21:43:53 45° ENE 21:46:48 10° NNE
Cosmos 2297 Rocket 3.8 21:46:14 18° E 21:46:19 18° E 21:50:04 10° ENE
Cosmos 841 Rocket 4.3 21:47:26 32° ESE 21:47:59 33° ESE 21:52:38 10° NE
Cosmos 1833 4.4 21:44:13 15° SW 21:48:58 72° WNW 21:54:38 10° NNE
CZ-2C R/B 4.3 21:52:45 17° W 21:52:45 17° W 21:54:39 10° NW
Cosmos 2360 Rocket 3.2 21:48:17 10° NW 21:53:26 36° WSW 21:55:44 26° SSW
Cosmos 1842 3.7 21:56:49 37° NE 21:56:49 37° NE 21:59:06 10° NNE
Cosmos 1766 3.0 21:53:45 10° NNW 21:56:45 63° WNW 21:56:45 63° WNW
Cosmos 2322 3.9 21:52:26 10° NNW 21:58:07 64° ENE 22:00:18 37° SE
Cosmos 1975 3.6 21:55:49 10° N 21:59:12 34° ENE 21:59:13 34° ENE
Meteor 2-6 Rocket 4.4 21:58:28 40° SSE 22:00:31 65° E 22:06:24 10° NNE
Cosmos 2034 Rocket 4.4 21:58:36 22° SSW 22:02:45 59° WNW 22:09:00 10° N
Cosmos 2221 3.2 22:03:19 38° E 22:03:19 38° E 22:07:12 10° NNE
Cosmos 372 Rocket 3.8 21:58:55 10° NNW 22:04:03 84° ENE 22:05:24 50° SSE
Cosmos 1271 Rocket 3.0 22:06:21 47° NE 22:06:21 47° NE 22:09:04 10° NNE
Cosmos 2219 Rocket 2.8 22:00:53 10° NW 22:06:15 46° WSW 22:08:05 34° SSW
SL-08 ROCKET BODY 4.4 22:05:12 10° N 22:11:25 78° E 22:13:38 42° SSE
Cosmos 540 Rocket 4.3 22:07:44 17° SW 22:11:25 48° WNW 22:16:25 10° NNE
Helios 1A 3.2 22:13:33 10° N 22:17:24 57° WNW 22:18:07 48° WSW
Cosmos 2279 Rocket 3.9 22:16:40 42° S 22:18:56 78° E 22:25:13 10° N
RESURS DK-1 2.1 22:16:39 10° NNW 22:20:38 83° ENE 22:20:45 81° E
Aureole 1 Rocket 4.3 22:16:18 10° NNW 22:22:08 59° WSW 22:24:34 38° SSW
Cosmos 1707 4.0 22:23:33 23° WNW 22:23:33 23° WNW 22:25:39 10° NNW
Cosmos 1634 Rocket 4.1 22:22:33 34° SSW 22:25:21 69° W 22:31:34 10° N
Cosmos 2322 Rocket 4.0 22:21:40 10° NW 22:25:34 19° W 22:27:37 16° SW
Meteor 1-19 Rocket 4.4 22:24:37 46° SSE 22:26:10 63° E 22:32:02 10° NNE
Cosmos 1937 Rocket 3.4 22:23:49 10° NNW 22:28:58 75° ENE 22:30:08 53° SE
TSX-5 4.4 22:27:40 10° NW 22:29:55 37° WNW 22:29:55 37° WNW
Cosmos 2058 Rocket 4.1 22:30:59 31° WSW 22:32:16 39° WNW 22:36:21 10° N
Geosat 4.5 22:28:03 10° NNE 22:32:59 58° NW 22:35:38 26° SW
SL-16 R/B 4.4 22:29:01 10° N 22:33:06 20° NE 22:37:10 10° E
CZ-2C R/B 3.5 22:29:12 10° NNE 22:33:41 83° ESE 22:34:15 68° S
GP-B 3.7 22:31:48 10° NNE 22:35:57 41° E 22:36:11 41° E
BREEZE-M DEB 4.5 22:32:49 10° WSW 22:37:41 74° S 22:53:04 10° E
Meteor 2-9 Rocket 4.1 22:34:39 10° NNW 22:40:04 78° W 22:41:24 53° S
Cosmos 44 4.2 22:35:34 10° NW 22:40:30 38° WSW 22:41:01 37° SW
CZ-2C R/B 3.7 22:39:09 26° ESE 22:41:07 35° ENE 22:45:48 10° N
Lacrosse 4 Rocket 3.0 22:42:43 22° E 22:42:43 22° E 22:44:50 10° NE
Cosmos 2237 Rocket 2.6 22:39:25 10° NNW 22:45:03 58° ENE 22:47:09 36° ESE
SeaSat 1 4.4 22:42:55 10° E 22:46:42 23° NE 22:50:32 10° N
USA 234 3.4 22:41:58 10° ENE 22:48:17 49° SE 22:49:36 43° SSE
Cosmos 2266 Rocket 3.9 22:42:34 10° N 22:48:38 79° E 22:50:27 48° SSE
Cosmos 1980 3.9 22:43:40 10° NNW 22:49:20 67° ENE 22:51:12 42° SE
Cosmos 1470 3.7 22:46:54 10° NNW 22:49:19 33° WNW 22:49:19 33° WNW
ARIANE 5 R/B 2.7 22:52:41 61° SW 22:53:00 64° WSW 22:57:27 10° NNW
Intercosmos 24 4.3 22:50:01 10° N 22:53:29 47° ENE 22:53:29 47° ENE
ALOS 2 2.5 22:54:46 70° SW 22:55:02 73° WSW 22:59:27 10° NNW
Cosmos 2227 Rocket 3.3 22:55:49 27° ESE 22:56:17 27° ESE 23:01:00 10° NE
Helios 1B rocket 3.9 22:58:18 23° W 22:58:18 23° W 23:00:41 10° NW
COSMOS 2428 2.9 22:53:01 10° NW 22:58:33 53° WSW 22:59:34 47° SW
Meteor 2-4 Rocket 4.1 23:00:13 42° SE 23:01:13 47° E 23:06:30 10° NNE
BlueWalker 3 4.1 23:05:22 15° ENE 23:05:22 15° ENE 23:06:05 10° ENE
ISS -1.3 23:00:26 10° WNW 23:01:11 16° WNW 23:01:11 16° WNW
Cosmos 1898 Rocket 4.0 22:59:03 10° NW 23:03:55 42° WSW 23:04:33 40° WSW
Cosmos 2263 Rocket 3.7 23:03:56 20° ESE 23:04:26 20° E 23:08:25 10° NE
CZ-2C R/B 3.4 23:02:21 10° NNE 23:08:05 63° E 23:09:26 49° SSE
Meteor 1-11 Rocket 3.7 23:03:19 10° NNW 23:08:57 70° W 23:10:10 53° SSW
Cosmos 1766 Rocket 3.7 23:05:36 10° N 23:09:52 60° ENE 23:10:08 59° E
SAR-Lupe-2 4.4 23:10:57 42° NW 23:10:57 42° NW 23:13:24 10° NNW
Meteor 1-10 Rocket 4.4 23:11:29 45° SSW 23:13:18 72° WNW 23:19:16 10° N
Cosmos 1238 Rocket 3.0 23:14:04 62° E 23:14:04 62° E 23:18:16 10° NNE
PSLV R/B 3.7 23:12:31 10° N 23:16:48 64° WNW 23:17:16 59° WSW
Cosmos 1655 Rocket 4.1 23:15:54 10° N 23:22:09 72° E 23:24:15 44° SSE
Cosmos 1814 Rocket 4.3 23:21:58 47° SE 23:22:33 49° ESE 23:27:35 10° NNE
Meteor 1-27 Rocket 3.7 23:25:49 51° SSW 23:27:22 82° W 23:33:08 10° N
Alouette 2 Rocket 3.7 23:23:50 10° N 23:27:43 75° ENE 23:28:18 64° SE
Cosmos 2297 Rocket 2.2 23:27:59 47° SW 23:29:40 76° WNW 23:35:21 10° NNE
NOSS 0 Rocket 4.4 23:24:00 10° NW 23:29:47 43° WSW 23:30:48 40° SW
Meteor 2-10 Rocket 3.9 23:24:55 10° N 23:30:27 65° ENE 23:32:13 43° SE
SL-14 R/B 4.2 23:39:49 37° E 23:39:49 37° E 23:43:09 10° NNE
Cosmos 2221 4.2 23:39:35 20° W 23:40:29 21° WNW 23:43:44 10° NNW
Cosmos 158 Rocket 4.0 23:39:40 58° S 23:40:41 79° ESE 23:46:02 10° NNE
CZ-4C R/B 4.1 23:39:08 10° NNE 23:41:47 36° ENE 23:41:47 36° ENE
MetOp-A 4.1 23:42:38 50° WSW 23:43:02 52° W 23:47:37 10° NNW
ACS3 Solar Sail 2.3 23:38:31 10° NNE 23:44:16 45° E 23:46:10 35° SE
Landsat 5 3.3 23:44:27 10° NNE 23:48:28 73° E 23:48:28 73° E
